| time (UTC) | temp C | wind direction | speed KPH | gust KPH | rain 1hr cm | rain 24hr cm | rain mn cm | humidity % | barometer mb |
| 20260510022830 | 25 | 138 | 4.8 | 8.0 | 0.00 | 0.00 | 0.00 | 75 | 1009.3 |
| 20260510022345 | 25 | 136 | 4.8 | 11.3 | 0.00 | 0.00 | 0.00 | 75 | 1009.2 |
| 20260510021818 | 25 | 136 | 6.4 | 11.3 | 0.00 | 0.00 | 0.00 | 75 | 1009.2 |
| 20260510021329 | 25 | 121 | 6.4 | 11.3 | 0.00 | 0.00 | 0.00 | 75 | 1009.2 |
| 20260510020836 | 25 | 130 | 4.8 | 8.0 | 0.00 | 0.00 | 0.00 | 74 | 1009.1 |
| 20260510020322 | 26 | 128 | 4.8 | 8.0 | 0.00 | 0.00 | 0.00 | 74 | 1009.0 |
| 20260510015828 | 26 | 125 | 3.2 | 9.7 | 0.00 | 0.00 | 0.00 | 74 | 1008.9 |
| 20260510015352 | 26 | 125 | 4.8 | 9.7 | 0.00 | 0.00 | 0.00 | 74 | 1008.8 |
| 20260510014837 | 26 | 122 | 4.8 | 6.4 | 0.00 | 0.00 | 0.00 | 74 | 1008.7 |
| 20260510014351 | 26 | 115 | 4.8 | 6.4 | 0.00 | 0.00 | 0.00 | 74 | 1008.7 |
| 20260510013830 | 26 | 113 | 3.2 | 6.4 | 0.00 | 0.00 | 0.00 | 74 | 1008.6 |
| 20260510013335 | 27 | 113 | 3.2 | 4.8 | 0.00 | 0.00 | 0.00 | 74 | 1008.5 |
| 20260510012820 | 27 | 113 | 3.2 | 6.4 | 0.00 | 0.00 | 0.00 | 74 | 1008.4 |
| 20260510012322 | 27 | 113 | 4.8 | 6.4 | 0.00 | 0.00 | 0.00 | 74 | 1008.4 |
| 20260510011827 | 27 | 115 | 3.2 | 6.4 | 0.00 | 0.00 | 0.00 | 74 | 1008.4 |
| 20260510011333 | 27 | 115 | 3.2 | 6.4 | 0.00 | 0.00 | 0.00 | 74 | 1008.3 |
| 20260510010845 | 27 | 117 | 3.2 | 6.4 | 0.00 | 0.00 | 0.00 | 73 | 1008.3 |
| 20260510010332 | 28 | 117 | 3.2 | 6.4 | 0.00 | 0.00 | 0.00 | 74 | 1008.3 |
| 20260510005839 | 28 | 118 | 3.2 | 6.4 | 0.00 | 0.00 | 0.00 | 74 | 1008.2 |
| 20260510005343 | 28 | 133 | 4.8 | 6.4 | 0.00 | 0.00 | 0.00 | 74 | 1008.1 |
| 20260510004828 | 28 | 140 | 3.2 | 8.0 | 0.00 | 0.00 | 0.00 | 74 | 1008.1 |
| 20260510004353 | 28 | 142 | 4.8 | 8.0 | 0.00 | 0.00 | 0.00 | 74 | 1008.1 |
| 20260510003847 | 28 | 143 | 3.2 | 8.0 | 0.00 | 0.00 | 0.00 | 74 | 1008.0 |
| 20260510003329 | 29 | 150 | 3.2 | 8.0 | 0.00 | 0.00 | 0.00 | 74 | 1008.0 |
| 20260510002831 | 29 | 150 | 3.2 | 9.7 | 0.00 | 0.00 | 0.00 | 74 | 1007.9 |
| 20260510002336 | 29 | 150 | 3.2 | 9.7 | 0.00 | 0.00 | 0.00 | 74 | 1007.9 |
| 20260510001822 | 30 | 149 | 3.2 | 9.7 | 0.00 | 0.00 | 0.00 | 75 | 1007.9 |
| 20260510001323 | 30 | 149 | 3.2 | 8.0 | 0.00 | 0.00 | 0.00 | 75 | 1007.8 |
| 20260510000821 | 30 | 147 | 3.2 | 8.0 | 0.00 | 0.00 | 0.00 | 75 | 1007.8 |
| 20260510000333 | 30 | 146 | 3.2 | 8.0 | 0.00 | 0.00 | 0.00 | 75 | 1007.9 |
| 20260509235839 | 30 | 165 | 4.8 | 11.3 | 0.00 | 0.00 | 0.00 | 76 | 1007.8 |
| 20260509235342 | 30 | 142 | 4.8 | 12.9 | 0.00 | 0.00 | 0.00 | 76 | 1007.8 |
| 20260509234849 | 30 | 99 | 6.4 | 12.9 | 0.00 | 0.00 | 0.00 | 76 | 1007.7 |
| 20260509234333 | 30 | 146 | 4.8 | 12.9 | 0.00 | 0.00 | 0.00 | 76 | 1007.7 |
| 20260509233839 | 30 | 139 | 6.4 | 11.3 | 0.00 | 0.00 | 0.00 | 77 | 1007.8 |
| 20260509233319 | 30 | 115 | 3.2 | 9.7 | 0.00 | 0.00 | 0.00 | 77 | 1007.8 |
| 20260509232853 | 30 | 123 | 3.2 | 6.4 | 0.00 | 0.00 | 0.00 | 77 | 1007.8 |
| 20260509232357 | 30 | 124 | 4.8 | 9.7 | 0.00 | 0.00 | 0.00 | 77 | 1007.7 |
| 20260509231843 | 31 | 124 | 4.8 | 8.0 | 0.00 | 0.00 | 0.00 | 77 | 1007.7 |
| 20260509231325 | 31 | 126 | 1.6 | 6.4 | 0.00 | 0.00 | 0.00 | 78 | 1007.6 |
| 20260509230829 | 31 | 126 | 4.8 | 9.7 | 0.00 | 0.00 | 0.00 | 78 | 1007.6 |
| 20260509230331 | 31 | 126 | 4.8 | 9.7 | 0.00 | 0.00 | 0.00 | 79 | 1007.6 |
| 20260509225906 | 30 | 105 | 0.0 | 3.2 | 0.00 | 0.00 | 0.00 | 79 | 1007.6 |
| 20260509225346 | 30 | 105 | 1.6 | 3.2 | 0.00 | 0.00 | 0.00 | 79 | 1007.5 |
| 20260509224828 | 30 | 105 | 1.6 | 4.8 | 0.00 | 0.00 | 0.00 | 80 | 1007.5 |
| 20260509224354 | 30 | 105 | 1.6 | 4.8 | 0.00 | 0.00 | 0.00 | 80 | 1007.5 |
| 20260509223820 | 30 | 105 | 1.6 | 4.8 | 0.00 | 0.00 | 0.00 | 80 | 1007.5 |
| 20260509223327 | 30 | 105 | 3.2 | 4.8 | 0.00 | 0.00 | 0.00 | 80 | 1007.4 |
| 20260509222833 | 30 | 114 | 3.2 | 6.4 | 0.00 | 0.00 | 0.00 | 81 | 1007.3 |
| 20260509222347 | 30 | 360 | 1.6 | 6.4 | 0.00 | 0.00 | 0.00 | 81 | 1007.4 |
| 20260509221845 | 30 | 303 | 4.8 | 8.0 | 0.00 | 0.00 | 0.00 | 82 | 1007.3 |
| 20260509221327 | 30 | 298 | 4.8 | 6.4 | 0.00 | 0.00 | 0.00 | 82 | 1007.4 |
| 20260509220833 | 30 | 276 | 3.2 | 4.8 | 0.00 | 0.00 | 0.00 | 82 | 1007.5 |
| 20260509220338 | 30 | 5 | 3.2 | 4.8 | 0.00 | 0.00 | 0.00 | 82 | 1007.4 |
| 20260509215829 | 30 | 42 | 1.6 | 4.8 | 0.00 | 0.00 | 0.00 | 83 | 1007.5 |
| 20260509215329 | 30 | 47 | 0.0 | 4.8 | 0.00 | 0.00 | 0.00 | 83 | 1007.5 |
| 20260509214832 | 30 | 48 | 1.6 | 6.4 | 0.00 | 0.00 | 0.00 | 83 | 1007.5 |
| 20260509214336 | 30 | 47 | 1.6 | 12.9 | 0.00 | 0.00 | 0.00 | 83 | 1007.6 |
| 20260509213820 | 30 | 269 | 6.4 | 12.9 | 0.00 | 0.00 | 0.00 | 84 | 1007.7 |
| 20260509213323 | 30 | 323 | 4.8 | 9.7 | 0.00 | 0.00 | 0.00 | 84 | 1007.8 |
| 20260509212826 | 30 | 345 | 3.2 | 12.9 | 0.00 | 0.00 | 0.00 | 84 | 1007.8 |
| 20260509212337 | 30 | 300 | 3.2 | 12.9 | 0.00 | 0.00 | 0.00 | 84 | 1007.9 |
| 20260509211843 | 30 | 274 | 6.4 | 16.1 | 0.00 | 0.00 | 0.00 | 85 | 1007.8 |
| 20260509211327 | 30 | 270 | 4.8 | 16.1 | 0.00 | 0.00 | 0.00 | 85 | 1007.9 |
| 20260509210825 | 29 | 297 | 4.8 | 8.0 | 0.00 | 0.00 | 0.00 | 85 | 1007.9 |
| 20260509210332 | 29 | 272 | 4.8 | 8.0 | 0.00 | 0.00 | 0.00 | 86 | 1008.0 |
| 20260509205905 | 29 | 321 | 3.2 | 6.4 | 0.00 | 0.00 | 0.00 | 85 | 1008.0 |
| 20260509205324 | 29 | 304 | 3.2 | 6.4 | 0.00 | 0.00 | 0.00 | 86 | 1008.1 |
| 20260509204827 | 29 | 289 | 3.2 | 6.4 | 0.00 | 0.00 | 0.00 | 86 | 1008.2 |
| 20260509204330 | 29 | 290 | 3.2 | 8.0 | 0.00 | 0.00 | 0.00 | 86 | 1008.3 |
| 20260509203835 | 29 | 300 | 3.2 | 8.0 | 0.00 | 0.00 | 0.00 | 86 | 1008.5 |
| 20260509203320 | 29 | 242 | 3.2 | 9.7 | 0.00 | 0.00 | 0.00 | 87 | 1008.6 |
| 20260509202826 | 29 | 241 | 4.8 | 9.7 | 0.00 | 0.00 | 0.00 | 87 | 1008.7 |
| 20260509202326 | 29 | 286 | 3.2 | 11.3 | 0.00 | 0.00 | 0.00 | 87 | 1008.8 |
| 20260509201834 | 29 | 283 | 4.8 | 11.3 | 0.00 | 0.00 | 0.00 | 87 | 1008.8 |
| 20260509201320 | 29 | 311 | 3.2 | 11.3 | 0.00 | 0.00 | 0.00 | 87 | 1008.9 |
| 20260509200823 | 29 | 308 | 4.8 | 11.3 | 0.00 | 0.00 | 0.00 | 88 | 1008.9 |
| 20260509200336 | 30 | 284 | 3.2 | 17.7 | 0.00 | 0.00 | 0.00 | 88 | 1008.8 |
| 20260509195843 | 30 | 247 | 4.8 | 17.7 | 0.00 | 0.00 | 0.00 | 88 | 1008.8 |
| 20260509195344 | 30 | 313 | 4.8 | 12.9 | 0.00 | 0.00 | 0.00 | 89 | 1008.9 |
| 20260509194825 | 29 | 242 | 4.8 | 12.9 | 0.00 | 0.00 | 0.00 | 89 | 1008.9 |
| 20260509194331 | 29 | 220 | 4.8 | 16.1 | 0.00 | 0.00 | 0.00 | 89 | 1008.9 |
| 20260509193835 | 29 | 246 | 4.8 | 14.5 | 0.00 | 0.00 | 0.00 | 89 | 1008.9 |
| 20260509193346 | 29 | 324 | 6.4 | 14.5 | 0.00 | 0.00 | 0.00 | 90 | 1008.9 |
| 20260509192820 | 29 | 269 | 6.4 | 14.5 | 0.00 | 0.00 | 0.00 | 90 | 1009.0 |
| 20260509192329 | 28 | 227 | 6.4 | 14.5 | 0.00 | 0.00 | 0.00 | 90 | 1009.1 |
| 20260509191854 | 28 | 267 | 6.4 | 12.9 | 0.00 | 0.00 | 0.00 | 90 | 1009.1 |
| 20260509191320 | 28 | 249 | 8.0 | 12.9 | 0.00 | 0.00 | 0.00 | 90 | 1009.3 |
| 20260509190822 | 28 | 217 | 1.6 | 9.7 | 0.00 | 0.00 | 0.00 | 91 | 1009.3 |
| 20260509190333 | 28 | 318 | 3.2 | 9.7 | 0.00 | 0.00 | 0.00 | 91 | 1009.5 |
| 20260509185831 | 28 | 312 | 3.2 | 11.3 | 0.00 | 0.00 | 0.00 | 91 | 1009.6 |
| 20260509185333 | 27 | 284 | 1.6 | 6.4 | 0.00 | 0.00 | 0.00 | 91 | 1009.6 |
| 20260509184819 | 27 | 286 | 0.0 | 8.0 | 0.00 | 0.00 | 0.00 | 91 | 1009.7 |
| 20260509184326 | 27 | 286 | 6.4 | 8.0 | 0.00 | 0.00 | 0.00 | 91 | 1009.8 |
| 20260509183825 | 27 | 307 | 1.6 | 8.0 | 0.00 | 0.00 | 0.00 | 91 | 1009.7 |
| 20260509183331 | 27 | 310 | 4.8 | 8.0 | 0.00 | 0.00 | 0.00 | 91 | 1009.8 |
| 20260509182820 | 27 | 246 | 6.4 | 8.0 | 0.00 | 0.00 | 0.00 | 91 | 1009.8 |
| 20260509182323 | 27 | 240 | 1.6 | 8.0 | 0.00 | 0.00 | 0.00 | 91 | 1009.9 |
| 20260509181836 | 27 | 244 | 4.8 | 14.5 | 0.00 | 0.00 | 0.00 | 91 | 1009.9 |
| 20260509181342 | 27 | 198 | 8.0 | 14.5 | 0.00 | 0.00 | 0.00 | 91 | 1010.0 |
| 20260509180824 | 27 | 240 | 1.6 | 12.9 | 0.00 | 0.00 | 0.00 | 92 | 1010.0 |
| 20260509180328 | 27 | 244 | 8.0 | 12.9 | 0.00 | 0.00 | 0.00 | 92 | 1010.2 |
| 20260509175834 | 27 | 197 | 3.2 | 9.7 | 0.00 | 0.00 | 0.00 | 91 | 1010.2 |
| 20260509175319 | 27 | 182 | 3.2 | 9.7 | 0.00 | 0.00 | 0.00 | 92 | 1010.3 |
| 20260509174826 | 27 | 271 | 4.8 | 9.7 | 0.00 | 0.00 | 0.00 | 92 | 1010.4 |
| 20260509174328 | 27 | 231 | 3.2 | 12.9 | 0.00 | 0.00 | 0.00 | 92 | 1010.3 |
| 20260509173833 | 27 | 202 | 4.8 | 12.9 | 0.00 | 0.00 | 0.00 | 92 | 1010.4 |
| 20260509173319 | 27 | 151 | 1.6 | 12.9 | 0.00 | 0.00 | 0.00 | 92 | 1010.4 |
| 20260509172821 | 27 | 242 | 6.4 | 12.9 | 0.00 | 0.00 | 0.00 | 92 | 1010.4 |
| 20260509172333 | 27 | 217 | 6.4 | 12.9 | 0.00 | 0.00 | 0.00 | 92 | 1010.4 |
| 20260509171854 | 27 | 158 | 4.8 | 11.3 | 0.00 | 0.00 | 0.00 | 92 | 1010.4 |
| 20260509171318 | 26 | 236 | 8.0 | 11.3 | 0.00 | 0.00 | 0.00 | 92 | 1010.4 |
| 20260509170845 | 26 | 263 | 1.6 | 11.3 | 0.00 | 0.00 | 0.00 | 92 | 1010.4 |
| 20260509170340 | 26 | 267 | 4.8 | 11.3 | 0.00 | 0.00 | 0.00 | 92 | 1010.5 |
| 20260509165845 | 26 | 222 | 6.4 | 11.3 | 0.00 | 0.00 | 0.00 | 92 | 1010.5 |
| 20260509165325 | 26 | 217 | 4.8 | 14.5 | 0.00 | 0.00 | 0.00 | 92 | 1010.7 |
| 20260509164826 | 25 | 242 | 6.4 | 14.5 | 0.00 | 0.00 | 0.00 | 92 | 1010.6 |
| 20260509164328 | 25 | 241 | 4.8 | 8.0 | 0.00 | 0.00 | 0.00 | 92 | 1010.6 |
| 20260509163842 | 25 | 232 | 3.2 | 9.7 | 0.00 | 0.00 | 0.00 | 92 | 1010.7 |
| 20260509163317 | 25 | 206 | 4.8 | 9.7 | 0.00 | 0.00 | 0.00 | 92 | 1010.7 |
| 20260509162850 | 24 | 234 | 4.8 | 8.0 | 0.00 | 0.00 | 0.00 | 92 | 1010.8 |
| 20260509162353 | 24 | 269 | 3.2 | 4.8 | 0.00 | 0.00 | 0.00 | 92 | 1011.0 |
| 20260509161903 | 24 | 269 | 3.2 | 6.4 | 0.00 | 0.00 | 0.00 | 92 | 1010.9 |
| 20260509161325 | 24 | 288 | 1.6 | 8.0 | 0.00 | 0.00 | 0.00 | 92 | 1011.0 |
| 20260509160828 | 24 | 311 | 3.2 | 6.4 | 0.00 | 0.00 | 0.00 | 92 | 1011.0 |
| 20260509160334 | 23 | 190 | 0.0 | 3.2 | 0.00 | 0.00 | 0.00 | 92 | 1010.9 |
| 20260509155821 | 23 | 188 | 0.0 | 4.8 | 0.00 | 0.00 | 0.00 | 92 | 1010.9 |
| 20260509155324 | 23 | 188 | 3.2 | 4.8 | 0.00 | 0.00 | 0.00 | 92 | 1010.9 |
| 20260509154855 | 23 | 186 | 0.0 | 1.6 | 0.00 | 0.00 | 0.00 | 92 | 1011.0 |
| 20260509154320 | 23 | 186 | 0.0 | 4.8 | 0.00 | 0.00 | 0.00 | 91 | 1011.0 |
| 20260509153827 | 23 | 186 | 1.6 | 4.8 | 0.00 | 0.00 | 0.00 | 91 | 1011.2 |
| 20260509153332 | 23 | 186 | 1.6 | 4.8 | 0.00 | 0.00 | 0.00 | 91 | 1011.3 |
| 20260509152838 | 23 | 186 | 1.6 | 4.8 | 0.00 | 0.00 | 0.00 | 91 | 1011.2 |
| 20260509152321 | 23 | 180 | 1.6 | 4.8 | 0.00 | 0.00 | 0.00 | 91 | 1011.1 |
| 20260509151825 | 23 | 173 | 1.6 | 6.4 | 0.00 | 0.00 | 0.00 | 91 | 1011.0 |
| 20260509151328 | 23 | 171 | 3.2 | 8.0 | 0.00 | 0.00 | 0.00 | 91 | 1011.0 |
| 20260509150840 | 23 | 162 | 3.2 | 9.7 | 0.00 | 0.00 | 0.00 | 91 | 1010.9 |
| 20260509150318 | 23 | 186 | 3.2 | 9.7 | 0.00 | 0.00 | 0.00 | 91 | 1010.9 |
| 20260509145826 | 23 | 222 | 0.0 | 6.4 | 0.00 | 0.00 | 0.00 | 91 | 1010.8 |
| 20260509145329 | 23 | 223 | 1.6 | 8.0 | 0.00 | 0.00 | 0.00 | 91 | 1010.7 |
| 20260509144835 | 23 | 223 | 3.2 | 8.0 | 0.00 | 0.00 | 0.00 | 91 | 1010.6 |
| 20260509144335 | 23 | 182 | 1.6 | 11.3 | 0.00 | 0.00 | 0.00 | 91 | 1010.5 |
| 20260509143821 | 23 | 200 | 4.8 | 11.3 | 0.00 | 0.00 | 0.00 | 91 | 1010.2 |
| 20260509143325 | 23 | 165 | 3.2 | 11.3 | 0.00 | 0.00 | 0.00 | 91 | 1010.0 |
| 20260509142829 | 23 | 171 | 4.8 | 11.3 | 0.00 | 0.00 | 0.00 | 91 | 1009.9 |
| 20260509142343 | 23 | 136 | 4.8 | 11.3 | 0.00 | 0.00 | 0.00 | 91 | 1010.0 |
| 20260509141849 | 23 | 153 | 3.2 | 8.0 | 0.00 | 0.00 | 0.00 | 91 | 1010.0 |
| 20260509141351 | 23 | 159 | 4.8 | 8.0 | 0.00 | 0.00 | 0.00 | 91 | 1009.9 |
| 20260509140837 | 23 | 224 | 0.0 | 4.8 | 0.00 | 0.00 | 0.00 | 91 | 1010.1 |
| 20260509140351 | 23 | 224 | 0.0 | 12.9 | 0.00 | 0.00 | 0.00 | 91 | 1010.1 |
| 20260509135835 | 23 | 224 | 3.2 | 12.9 | 0.00 | 0.00 | 0.00 | 91 | 1010.0 |
| 20260509135320 | 23 | 177 | 3.2 | 9.7 | 0.00 | 0.00 | 0.00 | 91 | 1009.9 |
| 20260509134822 | 23 | 227 | 1.6 | 11.3 | 0.00 | 0.00 | 0.00 | 91 | 1010.1 |
| 20260509134327 | 23 | 195 | 3.2 | 12.9 | 0.00 | 0.00 | 0.00 | 91 | 1010.0 |
| 20260509133835 | 22 | 216 | 6.4 | 11.3 | 0.00 | 0.00 | 0.00 | 91 | 1009.9 |
| 20260509133341 | 22 | 215 | 4.8 | 9.7 | 0.00 | 0.00 | 0.00 | 91 | 1009.8 |